Location: Peterborough
(44.3091°N, 78.3197°W)
Time: 05:00:52
(UTC-04:00)

A-11 Canister half - Pass Details

Date: 25 March 2023
Orbit: 1513 x 1686 km, 47.2° (Epoch: 04 June)

Event Time Altitude Azimuth Distance (km) Brightness Sun altitude
Rises 22:58:25 0° 239° (WSW) 4,802 11.7 -34.0°
Reaches altitude 10° 23:01:28 10° 238° (WSW) 3,841 11.2 -34.4°
Enters shadow 23:10:44 76° 189° (S) 1,699 8.9 -35.5°
